User: anonymous   Login
Location: Unspecified
(0.0000°N, 0.0000°E)
Time: 16:08:28
(UTC+00:00)
Language:

Sirio 1 - Orbit

View from above orbital plane
View from above orbital plane
View from above satellite
View from above satellite

Ground track
Ground track

The orbit data is extracted from the following two-line orbital elements,

1 10294U 77080A   19015.91600693 -.00000084 +00000-0 +00000-0 0  9991
2 10294 012.8195 325.7292 0006914 054.5708 138.9270 01.00273124090754
Epoch (UTC): 15 January 2019 21:59:02
Eccentricity: 0.0006914
inclination: 12.8195°
perigee height: 35756 km
apogee height: 35815 km
right ascension of ascending node: 325.7292°
argument of perigee: 54.5708°
revolutions per day: 1.00273124
mean anomaly at epoch: 138.9270°
orbit number at epoch: 9075

The dashed part of the orbit path shows where the satellite is in the earth's shadow,  

DLR